Wetterdaten: aktuell Donnerstag, 03.09.2026 11:42
Datum Zeit Temp. A. Feuchte A. Luftdruck Regen Wind Richtung Richtung Taupunkt Windchill
03.09.2026 11:42 22,3 °C 37 % 1013,0 hPa 0,0 l/m² 9,6 km/h (2 Bft) S±67.5° 175 ° 6,9 °C 21,3 °C
03.09.2026 11:40 22,3 °C 37 % 1013,0 hPa 0,0 l/m² 9,6 km/h (2 Bft) S±67.5° 175 ° 6,9 °C 21,3 °C
03.09.2026 11:38 22,3 °C 37 % 1013,0 hPa 0,0 l/m² 11,6 km/h (2 Bft) S-SO±45° 160 ° 6,9 °C 20,8 °C
03.09.2026 11:36 22,2 °C 38 % 1013,0 hPa 0,0 l/m² 10,3 km/h (2 Bft) S-SO±45° 165 ° 7,2 °C 21,0 °C
03.09.2026 11:34 22,2 °C 38 % 1013,0 hPa 0,0 l/m² 10,3 km/h (2 Bft) S-SO±45° 165 ° 7,2 °C 21,0 °C
03.09.2026 11:33 22,2 °C 38 % 1013,0 hPa 0,0 l/m² 11,0 km/h (2 Bft) S-SO±45° 155 ° 7,2 °C 20,8 °C
03.09.2026 11:31 22,1 °C 38 % 1013,0 hPa 0,0 l/m² 11,0 km/h (2 Bft) S-SO±45° 155 ° 7,1 °C 20,7 °C
03.09.2026 11:29 22,0 °C 39 % 1013,0 hPa 0,0 l/m² 7,0 km/h (2 Bft) SO±45° 135 ° 7,4 °C 21,8 °C
03.09.2026 11:27 22,0 °C 39 % 1013,0 hPa 0,0 l/m² 7,0 km/h (2 Bft) SO±45° 135 ° 7,4 °C 21,8 °C
03.09.2026 11:25 21,9 °C 39 % 1013,0 hPa 0,0 l/m² 12,6 km/h (3 Bft) SO±45° 145 ° 7,3 °C 20,1 °C
03.09.2026 11:23 21,7 °C 40 % 1013,0 hPa 0,0 l/m² 5,0 km/h (1 Bft) O-SO±67.5° 115 ° 7,5 °C 21,7 °C
03.09.2026 11:21 21,7 °C 40 % 1013,0 hPa 0,0 l/m² 11,2 km/h (2 Bft) SO±67.5° 140 ° 7,5 °C 20,2 °C
03.09.2026 11:19 21,6 °C 41 % 1013,0 hPa 0,0 l/m² 11,2 km/h (2 Bft) SO±67.5° 140 ° 7,8 °C 20,1 °C
03.09.2026 11:17 21,5 °C 42 % 1013,0 hPa 0,0 l/m² 10,5 km/h (2 Bft) SO±45° 135 ° 8,0 °C 20,2 °C
03.09.2026 11:15 21,5 °C 42 % 1013,0 hPa 0,0 l/m² 8,9 km/h (2 Bft) S±67.5° 190 ° 8,0 °C 20,6 °C
03.09.2026 11:13 21,1 °C 44 % 1013,0 hPa 0,0 l/m² 8,9 km/h (2 Bft) S±67.5° 190 ° 8,4 °C 20,2 °C
03.09.2026 11:11 21,1 °C 44 % 1013,0 hPa 0,0 l/m² 8,7 km/h (2 Bft) SW±67.5° 220 ° 8,4 °C 20,3 °C
03.09.2026 11:09 21,1 °C 44 % 1013,0 hPa 0,0 l/m² 8,0 km/h (2 Bft) S-SO±45° 155 ° 8,4 °C 20,5 °C
03.09.2026 11:07 20,9 °C 45 % 1014,1 hPa 0,0 l/m² 6,3 km/h (2 Bft) S-SO±67.5° 150 ° 8,5 °C 20,9 °C
03.09.2026 11:04 20,7 °C 47 % 1013,1 hPa 0,0 l/m² 6,3 km/h (2 Bft) S-SO±67.5° 150 ° 9,0 °C 20,7 °C
03.09.2026 11:02 20,5 °C 49 % 1013,1 hPa 0,0 l/m² 9,4 km/h (2 Bft) S-SO±45° 155 ° 9,4 °C 19,4 °C
03.09.2026 11:00 20,5 °C 49 % 1013,1 hPa 0,0 l/m² 1,7 km/h (1 Bft) SO±45° 135 ° 9,4 °C 20,5 °C
03.09.2026 10:58 20,2 °C 50 % 1014,1 hPa 0,0 l/m² 1,7 km/h (1 Bft) SO±45° 135 ° 9,4 °C 20,2 °C
03.09.2026 10:56 20,0 °C 50 % 1014,1 hPa 0,0 l/m² 7,1 km/h (2 Bft) SO±22.5° 135 ° 9,3 °C 19,7 °C
03.09.2026 10:54 20,0 °C 50 % 1014,1 hPa 0,0 l/m² 1,2 km/h (1 Bft) S-SO±22.5° 150 ° 9,3 °C 20,0 °C
03.09.2026 10:52 19,8 °C 52 % 1014,1 hPa 0,0 l/m² 2,9 km/h (1 Bft) SO 140 ° 9,7 °C 19,8 °C
03.09.2026 10:50 19,7 °C 52 % 1014,1 hPa 0,0 l/m² 2,9 km/h (1 Bft) SO 140 ° 9,6 °C 19,7 °C
03.09.2026 10:49 19,7 °C 52 % 1014,1 hPa 0,0 l/m² 3,0 km/h (1 Bft) SO 135 ° 9,6 °C 19,7 °C
03.09.2026 10:47 19,5 °C 53 % 1014,1 hPa 0,0 l/m² 0,9 km/h (0 Bft) SO 130 ° 9,7 °C 19,5 °C
03.09.2026 10:45 19,4 °C 54 % 1014,1 hPa 0,0 l/m² 0,3 km/h (0 Bft) S-SO±22.5° 155 ° 9,8 °C 19,4 °C
03.09.2026 10:43 19,4 °C 54 % 1014,1 hPa 0,0 l/m² 0,3 km/h (0 Bft) S-SO±22.5° 155 ° 9,8 °C 19,4 °C
03.09.2026 10:41 19,3 °C 55 % 1014,1 hPa 0,0 l/m² 0,3 km/h (0 Bft) S-SO±22.5° 155 ° 10,0 °C 19,3 °C
03.09.2026 10:39 19,2 °C 55 % 1014,1 hPa 0,0 l/m² 0,8 km/h (0 Bft) S-SO 155 ° 9,9 °C 19,2 °C
03.09.2026 10:37 19,2 °C 55 % 1014,1 hPa 0,0 l/m² 0,8 km/h (0 Bft) S-SO 155 ° 9,9 °C 19,2 °C
03.09.2026 10:35 19,1 °C 55 % 1014,1 hPa 0,0 l/m² 3,9 km/h (1 Bft) S-SO±22.5° 150 ° 9,8 °C 19,1 °C
03.09.2026 10:33 19,0 °C 55 % 1014,1 hPa 0,0 l/m² 3,9 km/h (1 Bft) SO 135 ° 9,8 °C 19,0 °C
03.09.2026 10:31 19,0 °C 55 % 1014,1 hPa 0,0 l/m² 1,0 km/h (0 Bft) S-SO±22.5° 155 ° 9,8 °C 19,0 °C
03.09.2026 10:29 18,9 °C 55 % 1014,1 hPa 0,0 l/m² 1,0 km/h (0 Bft) S-SO±22.5° 155 ° 9,7 °C 18,9 °C
03.09.2026 10:27 18,8 °C 56 % 1014,1 hPa 0,0 l/m² 0,6 km/h (0 Bft) S-SO 160 ° 9,8 °C 18,8 °C
03.09.2026 10:25 18,8 °C 56 % 1014,1 hPa 0,0 l/m² 0,6 km/h (0 Bft) S-SO 160 ° 9,8 °C 18,8 °C
03.09.2026 10:23 18,7 °C 56 % 1014,1 hPa 0,0 l/m² 4,5 km/h (1 Bft) SO±22.5° 135 ° 9,7 °C 18,7 °C
_ Min-Zeit 06:10 11:38 11:38 - 00:00 - - 11:38 06:10
Minimum _ 14,7 °C 37 % 1013,0 hPa - 0,0 km/h (0 Bft) - - 6,9 °C 14,7 °C
_ Max-Zeit 11:38 06:06 06:10 00:00 11:25 - - 10:41 11:27
Maximum _ 22,3 °C 66 % 1014,3 hPa 0,0 l/m² 12,6 km/h
SO (3 Bft)
- - 10,0 °C 21,8 °C
Durchschnitt _ 16,5 °C 60 % 1014,1 hPa #0,0 l/m² 1,3 km/h (1 Bft) SO - 8,6 °C 16,4 °C